{"data":{"norad_id":39070,"intl_designator":"2013-004A","name":"TDRS 11","alt_names":[],"object_type":"PAYLOAD","status":"ACTIVE","operator":null,"country":"US","launch_date":"2013-01-31","launch_site_code":"AFETR","launch_vehicle":null,"mission":null,"orbit_class":"UNKNOWN","rcs_meters":25.1189,"size_class":null,"mass_kg":null,"dimensions":null,"purposes":["comms"],"wikipedia_slug":null,"has_3d_model":false,"image_url":null,"decayed_at":null,"tle_current":{"epoch":"2026-05-25T02:35:22.680096Z","epoch_age_seconds":59653,"freshness":"FRESH","line1":"1 39070U 13004A   26145.10790139  .00000077  00000+0  00000+0 0  9997","line2":"2 39070   3.4873  30.8668 0005179  16.1311  60.1512  1.00274622 46461","mean_motion":1.00274622,"eccentricity":0.0005179,"inclination_deg":3.4873,"raan_deg":30.8668,"arg_perigee_deg":16.1311,"mean_anomaly_deg":60.1512,"bstar":0,"rev_number":4646,"period_min":1436.0562735405,"perigee_km":35763.962963056,"apogee_km":35807.636368655,"semimajor_km":42163.936665856,"source":"CELESTRAK","updated_at":"2026-05-25T13:38:13.940626Z"}}}